Flag for U.S.A. Weather past 2 weeks in Cleveland, Ohio, U.S.A.

Now
48 °F

Passing clouds.


Feels Like: 43 °F
Forecast: 32 / 43 °F
Wind: 12 mph from West

Location: Cleveland-Hopkins International Airport

Current Time: Mar 30, 2015 at 10:07:09 PM

Latest Report: Mar 30, 2015 at 8:51 PM


Visibility: 10 mi

Pressure: 29.96 "Hg

Humidity: 36%

Dew point: 22 °F

Location of ClevelandLocation

Historic Weather in Cleveland — Graph

°F

Cleveland temperature yesterday

Maximum temperature yesterday: 44 °F (at 5:51 PM)
Minimum temperature yesterday: 19 °F (at 2:51 AM)
Average temperature yesterday: 33 °F

Past Weeks' High & Low Weather Summary

 TemperatureHumidityPressure
High60 °F (Mar 16, 1:51 PM)97% (Mar 26, 8:51 AM)30.39 "Hg (Mar 26, 8:51 AM)
Low16 °F (Mar 28, 4:51 AM)28% (Mar 29, 5:51 PM)29.72 "Hg (Mar 17, 2:51 AM)
Average35 °F64%30.14 "Hg
* Reported Mar 15 8:51 PM — Mar 30 8:51 PM, Cleveland, Weather by CustomWeather, © 2015

Note: Actual official high and low records may vary slightly from our data, if they occured in-between our weather recording intervals... More about our weather records

Advertising

Cleveland weather history for previous 24 hours

 ConditionsComfort  
Time TempWeatherWind HumidityBarometerVisibility
8:51 PM
Mon, Mar 30
48 °FPassing clouds.12 mph36%29.96 "Hg10 mi
7:51 PM49 °FScattered clouds.15 mph36%29.95 "Hg10 mi
6:51 PM52 °FScattered clouds.16 mph35%29.94 "Hg10 mi
5:51 PM54 °FScattered clouds.20 mph33%29.94 "Hg10 mi
4:51 PM54 °FBroken clouds.24 mph34%29.94 "Hg10 mi
3:51 PM53 °FScattered clouds.22 mph35%29.94 "Hg10 mi
2:51 PM51 °FScattered clouds.22 mph36%29.95 "Hg10 mi
1:51 PM51 °FPassing clouds.15 mph38%29.98 "Hg10 mi
12:51 PM49 °FPassing clouds.20 mph43%30.00 "Hg10 mi
11:51 AM46 °FPassing clouds.16 mph50%30.01 "Hg10 mi
10:51 AM44 °FScattered clouds.20 mph60%30.00 "Hg10 mi
9:51 AM41 °FPartly sunny.16 mph67%29.98 "Hg10 mi
8:51 AM40 °FOvercast.14 mph70%29.95 "Hg10 mi
7:51 AM38 °FPassing clouds.12 mph76%29.92 "Hg10 mi
6:51 AM39 °FPassing clouds.14 mph73%29.90 "Hg10 mi
5:51 AM41 °FOvercast.18 mph67%29.87 "Hg10 mi
4:51 AM42 °FOvercast.15 mph68%29.85 "Hg10 mi
3:51 AM42 °FOvercast.18 mph71%29.85 "Hg10 mi
2:51 AM43 °FMostly cloudy.25 mph76%29.83 "Hg10 mi
1:51 AM40 °FOvercast.13 mph86%29.83 "Hg10 mi
1:02 AM40 °FLight rain. Mostly cloudy.15 mph80%29.83 "Hg8 mi
12:51 AM40 °FLight rain. Mostly cloudy.14 mph77%29.85 "Hg8 mi
11:51 PM
Sun, Mar 29
39 °FOvercast.20 mph73%29.87 "Hg10 mi
10:51 PM37 °FLight rain. Overcast.17 mph82%29.93 "Hg7 mi
Weather by CustomWeather, © 2015

See weather overviewHow to use our weather pages